Change the Weather History Date:

Tuesday, February 5, 2013

  Actual Average Record
Temperature  
Mean Temperature 56 °F -  
Max Temperature 66 °F - 74 °F (1986)
Min Temperature 45 °F - 12 °F (1970)
Degree Days  
Heating Degree Days 9    
Month to date heating degree days 90  
Since 1 July heating degree days 1121  
Growing Degree Days 5 (Base 50)    
Moisture  
Dew Point 43 °F    
Average Humidity 61    
Maximum Humidity 88    
Minimum Humidity 46    
Precipitation  
Precipitation 0.00 in - 1.80 in (1986)
Month to date precipitation 0.01  
Year to date precipitation 2.93  
Sea Level Pressure  
Sea Level Pressure 30.00 in    
Wind  
Wind Speed 5 mph (SW)    
Max Wind Speed 10 mph    
Max Gust Speed -    
Visibility 10 miles    
Events      
T = Trace of Precipitation, MM = Missing Value Source: NWS Daily Summary

Daily Weather History Graph

Daily Weather History Graph

Search for Another Location

Airport or City:

Trip Planner

Search our weather history database for the weather conditions in past years. The results will help you decide how hot, cold, wet, or windy it might be!

Date:

Astronomy

Feb. 05, 2013 Rise Set
Actual Time 6:33 AM CST 5:18 PM CST
Civil Twilight 6:07 AM CST 5:44 PM CST
Nautical Twilight 5:38 AM CST 6:13 PM CST
Astronomical Twilight 5:09 AM CST 6:42 PM CST
Moon 2:08 AM CST (2/5) 12:41 PM CST (2/5)
Length of Visible Light 11h 36m
Length of Day
10h 45m
Waning Crescent, 26% of the Moon is Illuminated
Feb 5
Waning Crescent
Feb 10
New
Feb 17
First Quarter
Feb 25
Full
Mar 4
Last Quarter

Hourly Weather History & Observations

Time (CST) Temp. Windchill Dew Point Humidity Pressure Visibility Wind Dir Wind Speed Gust Speed Precip Events Conditions
12:15 AM 46.4 °F 45.2 °F 32.0 °F 57% 29.99 in 10.0 mi South 3.5 mph - N/A   Clear
12:35 AM 46.4 °F 45.2 °F 30.2 °F 53% 29.98 in 10.0 mi SSE 3.5 mph - N/A   Clear
12:55 AM 46.4 °F 45.2 °F 32.0 °F 57% 29.98 in 10.0 mi SSE 3.5 mph - N/A   Clear
1:35 AM 46.4 °F 45.2 °F 30.2 °F 53% 29.97 in 10.0 mi South 3.5 mph - N/A   Clear
1:55 AM 46.4 °F - 32.0 °F 57% 29.97 in 10.0 mi Calm Calm - N/A   Clear
2:35 AM 44.6 °F 43.1 °F 32.0 °F 61% 29.96 in 10.0 mi South 3.5 mph - N/A   Clear
2:55 AM 46.4 °F 44.3 °F 33.8 °F 62% 29.97 in 10.0 mi South 4.6 mph - N/A   Scattered Clouds
3:15 AM 46.4 °F - 32.0 °F 57% 29.96 in 10.0 mi Calm Calm - N/A   Scattered Clouds
3:35 AM 46.4 °F - 33.8 °F 62% 29.97 in 10.0 mi Calm Calm - N/A   Mostly Cloudy
3:55 AM 46.4 °F - 33.8 °F 62% 29.97 in 10.0 mi Calm Calm - N/A   Mostly Cloudy
4:15 AM 46.4 °F 45.2 °F 35.6 °F 66% 29.97 in 10.0 mi South 3.5 mph - N/A   Overcast
4:35 AM 46.4 °F 45.2 °F 35.6 °F 66% 29.97 in 10.0 mi SSW 3.5 mph - N/A   Overcast
4:55 AM 46.4 °F 45.2 °F 35.6 °F 66% 29.97 in 10.0 mi South 3.5 mph - N/A   Overcast
5:15 AM 46.4 °F 44.3 °F 35.6 °F 66% 29.97 in 10.0 mi SW 4.6 mph - N/A   Overcast
5:35 AM 48.2 °F - 37.4 °F 66% 29.98 in 10.0 mi SSW 3.5 mph - N/A   Overcast
5:55 AM 48.2 °F - 37.4 °F 66% 29.99 in 10.0 mi SSW 3.5 mph - N/A   Overcast
6:15 AM 48.2 °F - 37.4 °F 66% 29.99 in 10.0 mi SSW 4.6 mph - N/A   Overcast
6:35 AM 48.2 °F - 37.4 °F 66% 30.00 in 10.0 mi SSW 3.5 mph - N/A   Overcast
6:55 AM 48.2 °F - 37.4 °F 66% 30.00 in 10.0 mi SSW 3.5 mph - N/A   Overcast
7:15 AM 48.2 °F - 39.2 °F 71% 30.02 in 10.0 mi SSW 3.5 mph - N/A   Overcast
7:35 AM 51.8 °F - 41.0 °F 67% 30.02 in 10.0 mi SSW 5.8 mph - N/A   Overcast
7:55 AM 51.8 °F - 42.8 °F 71% 30.03 in 10.0 mi SW 5.8 mph - N/A   Scattered Clouds
8:15 AM 53.6 °F - 44.6 °F 72% 30.03 in 10.0 mi SSW 9.2 mph - N/A   Clear
8:35 AM 55.4 °F - 44.6 °F 67% 30.02 in 10.0 mi SW 9.2 mph - N/A   Clear
8:55 AM 57.2 °F - 44.6 °F 63% 30.03 in 10.0 mi SW 10.4 mph - N/A   Clear
9:15 AM 57.2 °F - 44.6 °F 63% 30.03 in 10.0 mi SW 8.1 mph - N/A   Clear
9:35 AM 60.8 °F - 44.6 °F 55% 30.04 in 10.0 mi SW 9.2 mph - N/A   Scattered Clouds
9:55 AM 60.8 °F - 42.8 °F 52% 30.04 in 10.0 mi SW 9.2 mph - N/A   Mostly Cloudy
10:15 AM 60.8 °F - 42.8 °F 52% 30.04 in 10.0 mi West 8.1 mph - N/A   Partly Cloudy
10:35 AM 60.8 °F - 44.6 °F 55% 30.04 in 10.0 mi WSW 8.1 mph - N/A   Partly Cloudy
10:55 AM 62.6 °F - 44.6 °F 52% 30.03 in 10.0 mi SW 10.4 mph - N/A   Partly Cloudy
11:15 AM 62.6 °F - 44.6 °F 52% 30.03 in 10.0 mi SSW 6.9 mph - N/A   Partly Cloudy
11:35 AM 64.4 °F - 46.4 °F 52% 30.02 in 10.0 mi SSW 8.1 mph - N/A   Mostly Cloudy
11:55 AM 64.4 °F - 46.4 °F 52% 30.02 in 10.0 mi West 9.2 mph - N/A   Overcast
12:15 PM 64.4 °F - 44.6 °F 49% 30.01 in 10.0 mi WSW 8.1 mph - N/A   Overcast
12:35 PM 64.4 °F - 44.6 °F 49% 30.00 in 10.0 mi WSW 4.6 mph - N/A   Overcast
12:55 PM 66.2 °F - 44.6 °F 46% 29.99 in 10.0 mi West 9.2 mph - N/A   Overcast
1:15 PM 66.2 °F - 44.6 °F 46% 29.98 in 10.0 mi WSW 6.9 mph - N/A   Overcast
1:35 PM 66.2 °F - 44.6 °F 46% 29.98 in 10.0 mi WSW 8.1 mph - N/A   Overcast
1:55 PM 66.2 °F - 44.6 °F 46% 29.97 in 10.0 mi WSW 8.1 mph - N/A   Overcast
2:15 PM 66.2 °F - 44.6 °F 46% 29.97 in 10.0 mi West 6.9 mph - N/A   Overcast
2:35 PM 66.2 °F - 44.6 °F 46% 29.97 in 10.0 mi NW 5.8 mph - N/A   Overcast
2:55 PM 66.2 °F - 44.6 °F 46% 29.96 in 10.0 mi NW 5.8 mph - N/A   Overcast
3:15 PM 66.2 °F - 44.6 °F 46% 29.96 in 10.0 mi NW 5.8 mph - N/A   Overcast
3:35 PM 66.2 °F - 44.6 °F 46% 29.96 in 10.0 mi WNW 5.8 mph - N/A   Overcast
3:55 PM 66.2 °F - 44.6 °F 46% 29.96 in 10.0 mi NW 5.8 mph - N/A   Overcast
4:15 PM 66.2 °F - 44.6 °F 46% 29.96 in 10.0 mi West 3.5 mph - N/A   Mostly Cloudy
4:35 PM 66.2 °F - 44.6 °F 46% 29.96 in 10.0 mi Calm Calm - N/A   Partly Cloudy
4:55 PM 64.4 °F - 44.6 °F 49% 29.96 in 10.0 mi SW 4.6 mph - N/A   Clear
5:15 PM 64.4 °F - 44.6 °F 49% 29.96 in 10.0 mi SSW 3.5 mph - N/A   Mostly Cloudy
5:35 PM 62.6 °F - 46.4 °F 55% 29.96 in 10.0 mi South 4.6 mph - N/A   Scattered Clouds
5:55 PM 60.8 °F - 46.4 °F 59% 29.97 in 10.0 mi SSW 3.5 mph - N/A   Scattered Clouds
6:15 PM 60.8 °F - 46.4 °F 59% 29.98 in 10.0 mi Calm Calm - N/A   Mostly Cloudy
6:35 PM 60.8 °F - 46.4 °F 59% 29.99 in 10.0 mi SSW 3.5 mph - N/A   Overcast
6:55 PM 60.8 °F - 48.2 °F 63% 29.99 in 10.0 mi Calm Calm - N/A   Mostly Cloudy
7:15 PM 59.0 °F - 48.2 °F 67% 29.99 in 10.0 mi WSW 3.5 mph - N/A   Partly Cloudy
7:35 PM 59.0 °F - 48.2 °F 67% 30.00 in 10.0 mi WSW 4.6 mph - N/A   Partly Cloudy
7:55 PM 57.2 °F - 48.2 °F 72% 30.00 in 10.0 mi South 4.6 mph - N/A   Scattered Clouds
8:15 PM 57.2 °F - 48.2 °F 72% 30.01 in 10.0 mi SSW 3.5 mph - N/A   Clear
8:35 PM 57.2 °F - 48.2 °F 72% 30.02 in 10.0 mi Calm Calm - N/A   Clear
8:55 PM 57.2 °F - 48.2 °F 72% 30.02 in 10.0 mi Calm Calm - N/A   Mostly Cloudy
9:15 PM 57.2 °F - 48.2 °F 72% 30.03 in 10.0 mi Calm Calm - N/A   Overcast
9:35 PM 57.2 °F - 50.0 °F 77% 30.03 in 10.0 mi SW 3.5 mph - N/A   Scattered Clouds
9:55 PM 55.4 °F - 50.0 °F 82% 30.03 in 10.0 mi WSW 3.5 mph - N/A   Mostly Cloudy
10:15 PM 57.2 °F - 50.0 °F 77% 30.03 in 10.0 mi SW 3.5 mph - N/A   Overcast
10:35 PM 55.4 °F - 48.2 °F 77% 30.04 in 10.0 mi NNW 4.6 mph - N/A   Mostly Cloudy
10:55 PM 53.6 °F - 48.2 °F 82% 30.04 in 10.0 mi Calm Calm - N/A   Mostly Cloudy
11:15 PM 53.6 °F - 48.2 °F 82% 30.03 in 10.0 mi SE 3.5 mph - N/A   Partly Cloudy
11:35 PM 51.8 °F - 46.4 °F 82% 30.03 in 10.0 mi Calm Calm - N/A   Scattered Clouds
11:55 PM 51.8 °F - 48.2 °F 88% 30.03 in 10.0 mi Calm Calm - N/A   Partly Cloudy